Tracking 19634 objects as of 23-May-2019
HD Live streaming from Space Station
objects crossing your sky now

GALS 2

Track GALS 2 now!
GALS 2 is classified as:


NORAD ID: 23717
Int'l Code: 1995-063A
Perigee: 35,854.1 km
Apogee: 35,946.2 km
Inclination: 13.5 °
Period: 1,441.5 minutes
Semi major axis: 42271 km
RCS: 8.9125 m2 (large)
Launch date: November 17, 1995
Source: Commonwealth of Independent States (former USSR) (CIS)
Launch site: TYURATAM MISSILE AND SPACE COMPLEX (TTMTR)
aabbcc
Your satellite tracking list
Your tracking list is empty




NASA's NSSDC Master Catalog

Two Line Element Set (TLE):
1 23717U 95063A   19141.93382700 -.00000109  00000-0  00000+0 0  9991
2 23717  13.5254  22.6590 0010903 300.8413 251.4109  0.99893408 85867
Source of the keplerian elements: AFSPC